Wind_Speed
4 5 5 4 6 7 8 9 9 8 8 8 7 6 7 8 7 8 8 8 8 9 10 12 12 13 12 11 10 10 9 9 9 9 8 7 7 7 6 7 7 7 8 8 7 7 7 7 7 8 9 9 9 9 10 10 10 10 11 11 11 12 12 14 15 16 17 17 17 18 18 18 18 17 17 17 17 17 17 17 17 17 18 18 18
6 7 7 6 8 8 8 9 9 8 8 8 8 7 6 6 6 6 6 7 8 8 10 12 12 12 11 10 10 9 8 9 9 8 7 7 7 6 6 6 6 6 7 7 6 6 7 7 8 8 9 9 9 9 10 10 10 10 11 11 11 12 14 15 16 17 17 17 17 17 17 17 17 17 17 17 17 17 17 17 17 18 19 19 19
8 9 9 9 9 9 8 8 9 8 8 8 8 7 6 6 5 5 5 6 8 9 11 12 12 11 10 10 9 8 8 8 8 8 7 6 6 5 5 5 5 6 6 6 6 6 7 8 8 8 9 9 9 10 10 10 10 10 11 11 12 14 15 16 16 16 16 16 16 16 16 16 16 16 16 16 16 17 17 17 18 19 19 20 20
8 10 10 10 9 9 8 8 9 8 7 7 7 7 6 6 6 6 6 7 9 10 11 12 11 10 10 9 8 8 8 8 7 7 6 6 5 5 5 5 5 5 5 5 6 7 8 8 8 8 9 9 10 10 10 10 10 10 11 12 13 14 15 15 15 15 15 15 15 15 15 15 15 15 16 16 16 17 18 18 18 19 20 20 20
8 9 10 10 10 9 8 8 8 8 8 7 7 6 5 5 6 6 7 9 10 11 12 11 10 9 9 8 7 8 7 7 6 5 5 5 5 5 5 5 4 4 5 6 6 7 8 8 8 8 9 9 10 10 10 10 10 10 11 12 13 14 14 14 14 14 14 14 15 15 15 15 15 15 16 16 17 18 18 18 19 19 20 20 21
7 8 9 10 10 9 8 7 8 8 7 7 6 6 5 5 6 7 8 10 11 12 12 11 10 9 8 8 7 7 7 6 5 5 5 5 5 5 5 5 5 5 5 6 6 7 8 8 8 8 9 9 9 10 10 10 10 10 11 12 13 13 13 13 13 13 14 14 15 15 15 15 16 16 16 17 17 18 18 19 19 20 20 21 21
7 7 8 9 9 9 8 7 8 7 7 6 6 6 6 6 7 8 9 11 11 11 11 10 9 8 8 7 6 6 6 5 4 4 4 5 5 5 5 5 5 5 5 6 7 7 8 8 8 8 8 8 9 9 10 10 10 10 10 11 12 12 12 13 13 13 14 14 15 15 15 16 16 16 17 17 18 18 19 19 19 20 21 21 21
6 6 7 8 8 8 8 7 7 7 6 6 6 5 6 7 8 9 10 11 11 11 10 9 9 8 7 6 6 5 5 4 4 4 5 5 6 6 6 5 5 5 6 6 6 7 7 7 8 8 8 8 8 8 9 10 10 9 10 11 11 12 12 12 13 14 14 14 15 15 15 16 16 16 17 17 18 19 19 20 20 21 21 21 21
5 6 6 6 7 7 7 7 7 6 6 6 6 5 7 8 8 9 10 10 10 10 9 9 8 7 6 6 5 5 4 4 4 4 5 6 6 6 6 5 5 5 6 6 6 6 7 7 7 8 8 8 7 7 8 9 9 9 9 10 11 11 12 13 13 14 14 14 14 14 15 15 16 16 16 17 18 18 19 19 20 21 21 21 21
5 5 5 5 6 6 6 6 7 6 6 5 5 5 7 9 9 9 10 10 10 9 8 8 7 6 5 5 4 4 4 4 4 5 5 6 6 6 5 5 5 5 5 5 5 6 6 7 7 7 7 7 7 7 7 7 8 8 9 10 11 11 12 13 14 14 14 14 14 14 15 15 16 16 16 17 17 18 18 19 19 19 20 20 20
5 4 4 3 4 5 5 6 6 6 6 5 5 5 7 8 9 10 10 10 9 9 7 7 6 5 4 4 4 3 3 4 4 5 5 5 5 5 5 5 5 5 5 5 5 5 5 6 7 7 7 6 6 6 6 6 7 8 9 10 11 11 12 13 13 13 13 13 14 14 14 15 16 16 16 17 17 17 18 18 18 19 19 20 21
5 4 3 3 3 3 4 5 6 6 6 5 5 5 6 7 8 10 10 10 9 8 7 6 5 4 4 3 3 3 3 4 4 4 4 4 4 4 4 4 4 4 4 4 4 4 5 5 6 6 6 5 5 5 5 6 6 7 9 9 10 11 12 12 13 13 13 13 14 14 14 15 15 16 16 17 17 17 17 17 18 18 19 20 21
5 4 4 3 2 3 3 4 5 5 5 5 5 5 6 7 8 9 9 9 9 8 7 6 5 4 3 3 3 3 3 3 3 3 4 4 4 4 4 4 4 3 3 3 4 4 4 4 5 5 5 5 4 4 4 5 6 7 8 9 10 11 12 13 13 13 13 13 13 14 14 15 15 15 15 15 16 16 16 16 17 18 19 20 20
7 5 5 5 4 3 4 3 4 5 5 5 5 5 5 7 7 8 9 8 8 8 6 5 4 3 3 3 2 2 2 3 3 4 4 4 4 3 3 3 3 3 2 3 3 3 3 3 3 4 4 4 4 3 3 4 5 7 8 9 10 12 12 13 13 13 13 13 13 13 14 14 14 14 14 15 15 15 16 17 17 18 19 20 20
10 8 7 6 6 5 5 4 3 4 4 4 5 4 4 6 7 7 8 7 7 6 5 4 3 2 2 2 2 1 2 2 3 4 4 4 3 3 2 2 2 2 1 2 2 2 2 2 2 2 3 3 3 2 3 4 6 7 8 9 11 12 12 13 13 14 14 13 13 14 14 14 14 14 15 15 15 16 16 17 17 18 19 19 20
11 10 9 8 8 7 6 5 4 4 4 4 4 4 3 4 6 6 7 7 6 5 4 3 2 2 2 2 2 1 0 1 2 3 3 3 2 2 1 1 1 0 0 1 1 1 1 1 1 1 1 1 1 1 2 3 5 7 9 10 11 11 12 13 13 14 14 14 13 14 14 14 14 14 15 15 15 16 16 16 17 18 19 19 19
13 12 11 10 9 9 7 7 6 5 4 4 4 4 3 4 5 6 7 7 6 5 4 4 3 3 3 4 3 2 1 1 1 2 2 2 2 1 1 1 1 1 1 1 1 0 0 0 1 1 1 1 1 1 2 3 5 6 8 9 10 11 12 12 13 13 14 14 14 14 15 15 15 15 15 15 15 16 16 17 18 18 19 19 19
14 13 12 11 11 11 9 8 8 7 5 5 4 4 3 3 4 5 6 7 7 6 6 6 5 5 5 5 4 3 2 2 1 1 2 2 2 2 2 2 2 2 2 2 2 2 2 2 2 2 2 2 2 3 3 4 5 5 7 8 9 10 12 12 13 13 14 14 14 14 15 15 15 15 15 15 15 16 16 17 18 18 19 19 18
15 15 14 12 12 12 11 9 9 9 7 6 5 5 4 3 3 3 6 8 8 8 8 8 7 7 6 6 5 4 3 2 2 2 2 3 3 3 3 3 3 3 4 4 3 3 3 3 3 3 3 3 3 3 4 4 5 6 6 7 9 10 11 12 13 13 13 14 14 14 15 15 15 15 15 15 15 16 16 17 18 19 19 19 18
14 15 15 14 13 13 13 11 10 9 9 8 7 6 5 4 3 3 5 8 9 10 9 9 9 8 7 6 5 4 3 3 3 3 3 4 4 4 4 4 4 4 4 5 4 4 4 4 4 4 4 4 4 4 4 5 5 6 6 7 8 9 11 12 13 12 13 13 14 14 15 15 15 15 15 15 15 16 16 17 18 19 19 18 18
13 14 15 15 14 14 14 13 12 11 10 9 8 7 7 6 5 5 6 8 10 10 10 10 9 8 7 6 5 4 4 4 4 4 4 5 5 5 5 5 4 5 5 5 5 5 5 5 5 5 5 6 6 6 6 6 6 7 7 7 8 9 11 12 12 12 12 13 14 14 14 15 15 15 15 15 15 16 17 17 18 18 19 18 17
11 13 14 15 16 15 15 15 13 12 11 11 10 9 8 7 7 6 6 8 9 10 10 10 9 9 8 6 5 4 4 4 4 5 5 5 6 6 6 6 6 6 6 6 6 6 6 6 7 7 7 7 7 7 7 7 8 8 8 8 9 10 11 12 13 13 13 13 14 15 15 15 16 15 15 15 15 16 17 17 17 17 17 17 17
10 12 14 16 17 17 17 16 16 14 13 12 11 10 9 8 7 7 7 7 9 10 10 10 9 9 8 6 5 5 4 5 5 5 5 6 6 6 6 7 7 7 7 7 7 7 7 7 8 8 8 8 8 8 8 9 9 9 9 10 10 11 12 13 14 14 14 14 15 15 15 16 16 16 15 15 15 16 17 17 18 18 17 17 17
9 12 15 16 18 19 19 18 18 17 15 14 13 12 11 10 9 8 7 7 8 9 10 9 9 9 8 7 6 5 5 5 6 6 6 6 7 7 7 7 8 8 8 8 8 8 8 8 9 9 9 9 9 9 9 10 10 10 10 11 11 12 12 13 14 15 15 15 15 16 16 16 16 16 15 15 15 16 17 17 18 18 18 17 17
9 11 14 17 18 20 20 20 20 19 17 16 15 14 13 11 10 9 8 8 8 8 9 10 9 9 9 8 7 6 6 6 6 6 7 7 7 7 7 8 8 8 9 9 9 8 9 9 10 10 10 10 10 10 10 10 10 11 11 11 12 12 13 14 14 15 15 15 16 16 16 16 17 16 15 15 15 16 17 17 18 18 17 17 17
9 9 11 16 20 21 22 22 21 21 19 18 17 16 15 13 12 11 10 9 9 8 8 9 10 10 9 9 8 7 7 7 7 7 7 7 8 8 8 9 9 9 9 9 9 9 10 10 10 11 11 11 11 11 11 11 11 11 12 12 12 13 13 14 15 16 16 16 17 17 16 16 17 17 16 15 15 16 17 17 18 18 17 17 18
8 8 9 14 19 22 22 23 23 22 21 21 19 18 17 16 15 13 11 10 10 9 8 9 10 10 10 10 10 9 8 8 8 8 8 8 8 9 9 9 9 10 10 10 10 10 10 11 11 11 11 12 12 12 13 12 12 12 13 13 13 14 14 15 15 16 17 17 17 17 17 17 17 17 17 16 16 17 17 17 18 18 18 18 18
8 7 8 10 16 21 22 23 24 23 22 22 21 20 19 18 17 15 14 12 11 10 10 9 9 10 11 11 11 10 10 9 9 9 8 8 9 9 10 10 10 10 10 11 11 11 11 12 12 12 12 13 13 13 14 13 13 13 14 14 14 15 15 15 16 17 17 17 17 17 17 17 18 18 17 16 16 17 17 17 18 18 17 18 18
7 7 8 7 11 17 21 22 23 23 23 22 21 20 20 19 18 17 16 15 14 13 13 11 10 11 12 12 12 12 11 11 11 10 9 9 9 10 10 11 11 11 11 11 12 12 12 13 13 13 13 14 14 14 14 15 14 14 15 15 15 15 16 16 16 17 18 18 18 18 18 18 18 18 17 17 16 17 18 18 18 18 18 18 18
7 8 7 7 7 12 17 20 21 21 22 22 21 21 20 19 19 18 17 17 16 16 15 13 12 12 12 13 14 13 13 13 12 11 10 10 10 10 11 11 11 11 12 12 13 13 13 13 14 14 14 15 15 15 15 15 15 15 16 16 16 16 17 17 17 18 18 18 18 18 18 18 18 18 17 16 17 18 18 18 18 18 18 18 18
7 7 7 7 7 8 11 16 19 20 21 21 21 21 21 20 19 19 18 18 18 17 17 15 14 13 13 14 15 14 14 14 14 13 12 12 11 11 12 12 12 12 12 13 13 14 14 14 15 15 15 16 16 16 16 16 16 16 16 16 17 16 17 17 18 18 18 19 18 18 18 19 19 18 18 17 18 19 19 19 18 18 18 18 19
7 7 8 8 8 7 8 12 16 18 20 21 21 21 22 21 20 19 19 19 19 18 18 17 16 15 15 15 16 16 15 15 15 14 14 13 12 12 12 12 12 13 13 13 14 14 15 15 15 16 16 16 16 16 16 17 17 17 17 17 17 17 17 17 18 18 18 19 18 18 19 19 19 19 18 17 18 19 19 19 19 19 19 19 19
8 9 9 8 7 8 9 11 13 16 18 19 21 21 22 22 21 20 20 20 20 19 19 19 18 17 17 16 16 17 16 16 16 15 15 15 13 13 12 13 13 13 14 14 14 15 15 15 16 16 16 16 17 17 16 17 17 17 17 18 18 17 17 17 18 19 19 19 19 19 19 19 19 19 18 18 19 19 19 19 19 19 19 19 19
10 10 9 8 9 9 10 11 12 14 16 18 20 20 21 22 22 21 21 21 21 21 20 20 19 19 18 17 17 17 17 16 16 16 16 15 14 13 13 13 14 14 14 15 15 16 16 16 16 16 16 17 17 17 17 17 17 18 18 18 18 18 18 18 18 19 19 20 20 20 20 20 19 19 18 19 19 19 20 20 20 20 20 20 19
12 11 10 10 11 11 11 11 11 13 15 17 18 19 20 21 22 22 22 22 22 22 22 21 20 19 19 18 18 18 17 17 16 16 15 15 15 14 13 14 15 14 15 15 16 16 17 17 17 16 17 18 18 18 18 18 18 18 19 19 19 18 18 18 19 19 20 20 21 20 20 20 20 20 19 20 20 20 20 20 20 20 20 20 20
14 13 12 13 13 13 13 12 12 13 14 15 16 18 20 21 21 21 22 22 22 21 21 20 20 19 18 18 17 17 17 17 16 16 15 15 15 14 15 15 16 15 15 16 16 17 18 18 17 17 18 18 18 18 18 18 19 19 19 19 19 19 19 19 20 20 20 21 21 21 21 21 20 20 20 20 21 21 21 21 21 21 20 20 20
17 16 15 15 14 15 15 14 14 14 14 15 16 17 18 19 20 21 21 21 21 20 20 20 19 18 18 17 17 17 17 17 17 16 16 16 16 16 16 17 17 16 16 16 17 18 19 18 19 19 18 19 19 19 19 19 20 20 20 20 20 20 20 20 21 21 21 21 22 22 22 22 21 20 20 21 21 22 22 22 21 21 21 21 21
20 19 18 18 17 17 17 16 16 15 16 16 17 18 18 19 19 19 19 19 18 18 19 18 17 17 17 17 17 17 17 17 17 17 17 17 17 17 17 18 18 17 17 17 17 19 19 19 20 20 20 19 19 20 20 21 21 21 21 21 21 21 21 22 22 22 22 22 22 23 23 22 22 21 21 21 22 22 22 23 22 22 21 21 21
23 22 22 21 20 20 19 19 18 17 17 17 18 18 19 19 19 18 18 17 17 17 17 17 16 17 17 17 17 17 17 18 18 19 19 19 19 18 18 19 19 19 19 18 18 19 20 21 21 21 21 20 20 21 22 22 22 23 23 23 23 23 23 23 23 23 23 24 23 23 23 23 23 22 21 22 22 23 23 23 23 22 22 22 22
24 25 24 24 23 22 22 21 20 19 19 19 19 19 19 18 18 18 17 16 16 17 17 17 17 17 17 18 18 18 18 19 20 20 20 20 19 19 20 20 20 21 20 19 19 20 21 22 22 22 22 21 22 23 23 24 24 24 24 24 24 25 25 25 25 25 25 25 24 23 24 24 24 23 22 22 23 23 23 24 24 23 23 23 23
24 24 23 24 24 24 25 24 22 22 22 21 21 20 20 19 18 18 17 16 17 18 18 18 19 19 19 20 20 20 20 20 21 22 21 21 21 21 21 22 22 22 22 21 22 23 23 23 23 23 23 23 24 24 25 26 26 26 26 26 26 26 26 26 26 25 26 26 25 24 24 25 25 25 24 23 23 23 24 24 24 24 23 23 23
26 24 24 24 24 25 26 26 25 25 24 23 22 23 22 21 20 19 19 19 19 20 20 20 21 21 22 22 22 21 21 21 22 22 21 21 21 21 22 22 23 23 23 23 24 24 24 24 24 24 24 25 25 26 26 27 27 27 28 28 28 27 27 27 27 26 26 26 26 26 25 25 26 25 25 24 24 24 24 25 25 24 24 24 24
28 28 28 27 27 26 26 26 27 28 26 25 25 24 23 23 23 23 23 22 22 22 22 23 23 23 23 23 22 22 22 21 21 22 22 21 21 21 22 22 23 24 24 24 25 25 25 25 25 25 26 27 26 27 27 28 29 29 30 30 29 29 28 28 28 27 28 27 27 27 26 26 26 26 25 25 25 24 25 25 25 25 25 24 24
29 30 31 31 30 29 28 26 27 28 29 28 27 25 25 26 26 26 26 26 25 25 25 25 24 23 22 22 21 21 21 21 21 22 22 21 21 21 22 23 23 24 25 25 25 25 26 26 26 26 27 28 27 28 29 29 29 29 31 31 30 31 30 28 28 28 29 29 28 28 27 27 27 27 26 25 25 25 25 25 25 25 25 25 25
29 29 30 30 31 31 31 30 29 29 30 31 30 29 29 29 29 29 29 29 27 27 25 23 22 21 20 20 20 21 21 21 22 22 22 22 22 22 23 23 24 25 26 26 26 27 27 27 27 27 28 28 28 29 30 30 29 30 31 32 31 32 31 30 30 30 30 30 29 29 28 28 28 28 27 26 26 25 25 26 25 25 25 25 25
27 26 28 29 31 33 33 33 32 31 31 31 32 32 32 31 31 31 31 30 29 28 25 23 22 22 21 22 22 22 22 23 23 23 24 24 24 24 25 25 25 26 27 27 27 27 27 27 28 28 28 29 30 30 30 30 31 31 32 32 32 32 33 33 33 32 31 31 30 30 29 29 29 29 28 27 26 26 25 26 26 25 25 25 26
25 25 28 30 32 33 33 33 34 33 32 32 34 36 36 34 33 32 31 31 31 28 26 25 25 25 25 25 25 24 24 24 25 25 25 25 26 26 26 26 26 27 28 28 28 28 28 28 29 29 29 30 31 32 30 31 32 33 32 32 33 33 34 35 34 34 34 33 31 30 30 29 29 29 29 28 27 26 26 25 26 26 25 25 26
26 27 29 30 32 32 33 34 34 35 35 34 34 36 38 37 35 34 33 33 32 29 28 28 28 29 28 28 27 27 26 26 26 26 26 26 26 27 27 27 27 28 28 28 28 29 30 31 31 31 31 31 32 33 32 32 33 33 32 34 34 34 35 36 36 36 36 35 33 31 30 30 30 29 29 29 28 27 27 26 26 26 27 26 26
28 29 30 31 32 32 33 34 34 35 36 35 35 35 37 39 38 37 36 35 33 31 30 31 31 31 30 29 29 28 28 28 27 27 27 28 28 28 28 28 28 28 29 29 29 30 31 32 32 32 32 33 33 34 34 33 33 33 33 34 35 35 35 36 36 36 36 36 36 34 32 31 31 30 30 30 29 29 29 28 27 28 28 28 27
29 29 31 32 33 33 33 34 35 35 36 36 36 36 36 38 40 40 39 37 35 33 33 33 32 32 31 31 30 30 30 30 29 29 29 29 29 29 30 29 29 29 29 30 30 30 31 31 32 33 33 34 34 35 34 34 35 35 34 34 35 34 34 35 36 36 37 37 36 36 34 33 32 31 31 31 30 30 31 30 29 29 29 29 28
30 30 31 32 33 33 33 34 34 35 36 36 37 37 37 38 39 40 40 38 37 36 36 35 33 33 32 32 31 31 32 31 32 32 31 31 31 31 31 30 29 30 30 30 30 30 30 31 32 33 34 34 35 35 35 34 35 35 34 34 34 33 34 35 35 36 37 37 37 36 36 35 34 33 31 31 31 31 31 31 30 30 31 31 30
Wind_Direction
116 107 105 114 105 111 118 120 118 115 110 103 105 110 119 122 121 115 105 98 91 89 97 104 104 103 103 99 90 83 77 74 72 69 65 60 59 61 67 73 79 86 90 92 91 88 84 80 77 75 74 73 74 74 74 75 75 76 77 76 75 73 70 66 62 58 54 52 50 48 46 44 42 40 39 38 35 34 34 33 31 30 27 25 25
106 96 89 90 94 102 108 110 112 110 105 102 101 104 114 117 117 113 104 97 93 95 103 105 103 103 101 94 86 80 74 71 69 67 62 55 54 57 65 72 81 86 89 90 87 84 79 74 70 70 72 73 74 76 77 78 79 79 79 78 75 71 66 62 58 55 52 50 48 47 45 42 40 38 36 35 34 32 32 31 28 26 25 23 22
96 91 85 85 89 93 98 101 105 105 104 103 104 108 111 112 110 108 108 104 103 104 106 106 105 103 98 90 82 76 70 65 64 63 56 48 47 53 62 69 76 80 84 85 82 78 74 70 68 70 72 76 78 79 80 80 81 80 79 77 73 67 62 59 56 54 52 50 48 45 43 40 37 36 33 31 30 29 30 28 26 24 23 21 19
92 89 86 85 86 87 93 98 103 105 106 105 106 108 107 108 108 109 112 112 111 111 109 109 108 104 95 87 79 71 65 61 60 59 50 41 39 45 53 59 64 69 74 74 72 71 71 70 69 71 74 79 82 82 82 80 79 77 75 73 69 65 61 58 56 54 51 50 47 44 41 39 35 33 32 29 26 26 28 26 23 23 20 18 17
92 89 87 86 84 83 87 93 100 105 107 107 105 106 105 104 106 112 116 114 115 114 113 113 109 101 91 84 75 67 60 56 58 54 44 34 31 35 42 47 51 55 60 63 65 69 72 72 72 73 74 78 83 85 83 80 77 73 71 68 66 63 60 58 55 53 50 47 44 41 38 36 33 31 30 28 25 24 25 24 21 20 18 17 15
97 92 90 87 84 83 84 88 93 101 103 102 99 98 100 100 105 113 115 115 116 117 116 113 107 97 88 80 70 64 58 56 55 45 34 24 21 24 31 37 42 48 53 60 66 70 73 74 74 75 75 77 81 82 81 79 75 70 67 66 64 62 59 56 53 50 47 44 41 38 34 33 30 28 26 25 23 22 22 21 19 17 16 15 13
103 99 95 90 87 85 84 86 91 96 97 94 91 92 97 102 109 114 115 116 118 118 115 111 103 95 87 79 71 63 56 53 50 36 24 19 16 18 25 33 41 48 54 61 66 71 74 76 77 78 77 77 78 78 79 79 74 68 65 64 62 58 54 51 49 46 44 41 38 34 31 29 28 26 24 23 20 19 18 17 17 14 13 12 11
109 103 99 93 91 88 86 87 92 98 97 92 89 93 102 113 119 119 119 121 121 119 115 109 100 93 86 79 71 60 54 49 40 28 18 16 16 20 27 36 44 51 57 62 67 72 77 81 83 84 83 80 77 75 75 77 76 71 64 60 57 52 48 45 43 41 40 37 34 31 28 26 25 23 21 21 19 16 15 14 14 11 11 9 7
114 104 98 95 93 90 91 91 96 101 99 93 90 99 113 123 125 124 125 127 125 120 114 105 97 90 82 79 71 60 55 44 34 25 17 17 20 25 31 41 49 55 60 63 69 74 80 84 87 88 86 83 78 74 70 71 72 69 61 55 50 47 43 39 37 36 34 32 30 27 25 23 21 21 19 18 17 14 12 11 11 8 7 5 3
122 105 96 96 95 93 94 96 103 106 101 95 92 99 116 127 129 131 133 132 129 123 115 107 99 91 84 83 78 66 57 43 35 26 19 22 25 29 37 47 53 58 62 63 67 74 80 85 88 88 87 86 84 81 75 69 65 61 55 48 43 40 37 35 32 30 28 26 25 23 21 19 18 18 16 16 14 11 10 9 8 5 4 2 0
136 117 104 99 99 98 97 102 108 114 112 104 100 103 118 129 133 137 139 139 135 129 123 114 104 99 95 93 89 76 58 45 37 32 26 29 32 36 42 50 54 57 60 64 68 73 80 86 89 90 91 92 93 91 85 74 61 53 48 43 39 36 33 31 28 24 23 21 20 18 17 16 15 12 11 13 11 7 6 5 4 2 0 359 359
155 145 132 120 119 114 104 105 111 116 119 115 107 111 126 136 139 142 145 146 143 138 136 125 115 113 112 110 100 80 60 48 40 39 37 39 41 44 48 51 55 56 62 69 74 79 85 88 90 94 96 97 95 90 86 77 61 48 41 37 35 33 31 28 25 22 18 16 15 14 13 13 12 8 7 7 6 3 2 1 0 359 358 358 358
186 177 170 160 153 150 131 112 115 118 120 123 114 113 131 144 148 150 153 153 150 148 146 135 131 131 123 121 106 82 63 49 39 36 38 41 43 47 51 52 55 60 67 77 83 88 89 92 96 101 104 102 96 83 72 67 59 49 39 33 31 30 27 24 21 17 15 13 10 10 10 9 7 5 2 1 1 359 358 358 357 357 356 357 357
220 215 204 187 176 177 165 135 123 127 125 124 118 114 130 148 154 158 161 160 157 155 154 148 146 144 130 130 115 79 49 37 32 29 31 34 37 43 50 52 59 65 74 88 97 103 103 105 110 112 114 114 107 92 63 45 42 42 38 32 28 26 24 20 16 12 10 9 6 5 5 4 2 0 357 356 358 355 354 356 354 354 355 356 355
236 237 231 208 190 187 184 168 141 138 135 124 120 117 127 148 159 166 167 167 166 162 160 163 159 153 150 147 131 94 36 23 20 23 27 27 31 38 47 53 56 63 83 108 122 126 123 119 121 123 123 119 108 92 62 33 23 24 27 28 26 22 19 15 11 8 5 4 2 359 360 359 357 356 352 352 354 350 352 353 351 351 353 355 354
237 242 240 223 201 193 195 185 166 156 146 134 127 124 127 144 160 172 175 176 178 177 179 191 192 181 176 174 166 156 27 6 13 17 23 21 23 25 24 42 44 56 128 155 161 145 129 116 117 128 125 123 114 83 48 30 18 15 17 20 20 17 14 10 7 4 1 360 358 354 354 354 352 351 347 349 350 347 349 349 347 349 352 353 352
234 238 239 231 211 198 199 196 185 177 164 157 149 138 137 138 154 177 183 182 185 191 203 216 217 206 192 191 199 204 227 286 344 3 10 4 356 349 337 332 334 318 302 289 280 299 16 12 337 323 325 334 8 1 10 16 13 9 9 12 13 10 7 6 4 360 357 356 354 351 349 348 347 346 343 346 347 344 345 345 345 349 352 351 350
234 234 235 233 221 205 200 203 197 189 181 176 169 156 154 145 148 176 186 187 191 197 210 223 225 218 206 199 207 217 231 253 290 327 342 338 336 330 327 327 329 329 323 319 319 323 332 330 319 317 315 315 322 331 344 352 356 359 360 2 4 3 0 1 1 357 354 351 350 348 344 342 342 340 340 343 343 342 342 342 344 348 349 348 347
236 233 232 232 228 216 204 204 206 200 193 187 180 174 173 163 159 181 190 191 196 203 213 221 224 222 212 205 209 224 238 256 278 305 326 330 332 327 324 326 327 327 323 319 322 324 323 319 312 306 299 295 297 308 320 327 336 343 348 353 354 354 352 354 355 354 351 346 345 343 340 337 336 335 335 339 340 339 340 339 342 346 346 345 345
240 237 233 230 228 223 214 208 209 208 203 195 189 188 188 186 194 207 203 199 201 208 216 221 225 224 217 211 215 233 252 272 291 308 323 327 326 324 321 322 322 319 315 313 313 312 308 304 299 294 289 285 283 288 297 308 318 325 334 341 344 345 345 347 348 348 346 341 340 338 335 332 331 331 332 337 337 335 337 338 341 343 343 344 344
247 243 238 232 228 224 220 216 213 213 212 205 197 196 199 200 207 221 222 213 209 212 219 225 227 226 221 216 223 243 266 283 297 309 317 319 319 317 315 312 308 303 301 301 301 299 298 295 292 290 288 286 286 289 295 301 307 313 321 331 335 337 338 341 340 342 342 337 335 333 331 328 328 329 331 334 334 332 334 336 340 341 340 342 342
252 245 241 236 230 226 223 221 219 217 216 213 207 202 205 211 214 224 234 227 220 219 223 228 230 230 226 223 231 250 266 280 291 303 306 308 310 309 306 302 296 293 293 293 294 294 293 294 291 291 291 290 292 293 296 300 303 309 316 324 330 332 334 335 335 337 339 334 331 330 329 327 326 328 329 330 331 330 331 333 337 338 338 339 340
258 245 240 237 231 227 224 223 224 223 220 219 217 210 208 213 220 228 238 239 230 226 229 231 231 231 231 231 239 251 264 276 286 294 298 299 300 300 300 297 293 289 288 289 290 292 291 292 290 290 292 292 293 293 295 297 300 306 313 319 324 329 330 331 332 333 336 333 329 328 327 325 325 326 325 327 328 327 328 332 335 335 336 336 338
263 247 237 234 231 228 224 222 224 226 225 224 223 221 215 214 220 229 240 247 241 233 233 235 234 233 233 236 245 256 263 272 282 290 293 294 293 293 294 292 289 286 283 284 285 287 288 287 288 290 293 293 292 291 291 293 299 303 308 315 320 325 326 328 330 330 331 330 327 326 325 323 324 324 323 324 325 324 327 331 332 333 334 335 336
269 258 244 233 228 227 226 224 223 225 228 229 228 227 224 221 222 228 237 248 251 242 237 237 237 236 236 239 249 258 264 270 279 286 287 290 290 288 286 284 282 280 279 279 281 283 285 286 287 290 292 293 291 290 291 292 297 301 305 311 317 322 324 326 328 328 328 327 325 325 323 322 321 322 321 322 323 324 326 328 329 330 331 331 332
282 273 256 238 228 225 225 225 224 223 225 230 232 232 230 228 228 229 234 244 254 254 248 243 240 238 239 243 251 259 267 273 278 283 286 286 285 284 282 280 278 277 276 276 279 281 283 285 287 289 291 291 290 290 291 293 296 299 303 309 315 320 322 325 326 326 326 325 325 324 323 321 319 320 321 321 322 322 323 325 325 327 327 327 329
295 283 264 247 234 227 224 225 226 224 224 227 231 234 235 234 234 234 235 243 254 261 261 255 249 244 242 245 251 258 266 273 278 279 282 283 282 282 279 277 276 275 276 276 278 280 282 284 287 289 290 289 289 290 291 294 297 299 303 310 316 319 321 324 326 325 324 325 326 325 323 321 319 320 320 321 321 319 320 322 323 324 324 324 327
302 296 282 261 242 232 228 227 228 228 227 228 229 232 236 237 238 238 239 242 249 258 261 258 256 253 248 247 250 256 262 268 274 277 281 281 280 281 279 277 276 276 276 278 279 281 283 286 288 289 290 290 290 292 295 298 302 305 308 313 316 319 320 323 325 323 323 325 327 325 323 322 320 319 319 319 319 316 317 320 321 322 321 321 324
292 295 293 284 255 238 233 231 232 233 233 233 233 233 235 238 241 242 243 243 244 249 252 251 251 253 252 250 249 251 258 264 271 278 282 282 282 282 280 279 279 279 279 280 282 283 286 288 291 292 292 293 294 297 301 304 308 310 311 312 315 317 318 321 323 323 322 325 327 325 324 322 320 318 317 317 315 312 315 318 319 319 318 319 322
281 291 294 295 275 250 240 236 236 237 239 239 238 238 238 239 242 244 247 249 249 250 250 249 247 249 252 252 251 250 255 261 269 277 282 284 287 285 282 281 281 281 281 282 285 286 289 291 294 295 297 298 300 302 304 306 308 308 309 310 313 315 316 318 320 321 321 323 325 324 324 322 319 317 316 315 311 310 314 317 317 317 316 317 319
276 284 285 285 281 268 251 242 240 240 241 242 242 242 242 242 243 244 248 251 255 257 257 256 252 250 251 253 254 253 254 258 265 273 279 284 289 287 284 283 282 282 283 285 287 289 291 294 296 298 300 302 304 305 306 307 306 306 307 308 310 312 313 315 317 318 318 319 322 323 323 321 319 317 314 312 308 309 313 314 315 315 314 314 316
271 264 265 274 278 275 260 249 246 244 244 245 246 245 245 246 245 245 247 251 254 257 260 261 259 257 254 254 255 255 255 257 262 268 274 281 287 288 287 286 284 284 286 287 288 289 291 294 297 298 301 302 302 303 305 304 304 304 305 306 307 309 311 313 314 315 315 317 320 321 321 320 318 316 312 308 305 307 311 312 313 312 310 311 313
268 259 259 269 273 271 265 257 251 249 247 247 248 248 248 248 247 246 245 248 252 254 257 258 258 257 255 254 255 256 256 257 260 264 268 275 282 287 290 288 286 286 287 287 287 288 290 292 294 296 298 298 299 300 302 302 302 303 303 303 304 306 308 311 311 312 314 315 317 319 320 319 317 314 310 305 303 306 308 309 310 309 307 307 310
264 263 265 266 259 255 257 258 257 254 250 248 249 249 250 251 251 249 247 247 249 251 253 254 254 255 255 253 253 255 256 257 258 261 264 270 276 283 288 287 285 286 285 284 284 285 287 288 290 293 294 295 296 299 300 301 301 300 300 300 301 303 306 308 309 311 313 313 314 316 317 317 316 312 308 304 302 304 304 306 306 305 304 305 307
261 262 261 255 250 248 247 249 253 254 252 251 250 250 251 252 252 252 250 249 249 250 251 252 253 254 253 251 252 253 255 257 258 261 263 267 271 276 281 282 281 282 281 280 281 283 284 285 287 289 290 292 294 296 298 298 298 297 296 297 299 301 304 306 307 309 310 310 311 312 313 314 314 311 307 303 301 301 301 303 303 302 302 302 304
257 257 255 253 251 250 248 245 245 248 252 253 251 250 250 251 251 250 250 249 249 249 250 252 252 253 254 253 253 253 254 256 258 260 262 264 266 269 271 273 275 277 277 277 279 280 280 282 285 286 287 289 292 294 295 294 293 293 293 294 296 299 302 304 305 307 307 307 308 308 310 312 312 310 307 303 301 300 299 300 300 300 299 298 300
250 249 249 251 252 251 249 246 244 242 245 248 249 250 250 250 250 249 248 247 247 248 250 252 253 254 256 256 254 254 255 256 257 259 260 261 261 261 263 267 270 273 273 274 275 276 278 281 283 285 286 287 290 291 291 290 289 289 290 292 295 298 300 302 303 304 304 305 306 306 308 310 310 309 306 302 300 298 297 297 297 297 296 296 297
245 244 244 246 248 250 251 249 247 243 240 241 244 246 248 249 249 249 249 250 250 252 254 256 258 259 259 259 257 256 256 256 257 257 256 256 257 257 259 262 266 269 270 271 272 273 276 279 280 281 283 285 287 288 287 286 286 287 289 291 294 296 297 298 300 302 304 304 304 305 307 308 308 308 306 302 300 297 296 295 295 295 295 294 295
244 242 241 241 243 245 248 249 249 248 245 243 243 244 246 248 251 253 254 256 258 259 261 264 263 261 260 259 257 256 255 255 255 254 253 252 254 255 257 260 263 265 267 269 271 273 275 275 276 279 281 283 284 284 284 284 285 287 289 291 293 293 294 297 299 302 304 304 305 306 307 306 306 306 305 302 300 297 295 294 293 294 293 293 293
246 242 241 241 242 243 244 246 247 248 247 246 245 246 248 250 254 258 260 264 266 265 263 262 260 258 257 255 254 253 251 251 252 252 252 251 252 254 256 259 261 263 265 267 268 269 270 272 275 278 280 281 281 281 282 283 285 287 288 289 290 291 294 297 299 301 302 303 305 305 305 303 303 303 303 302 300 298 295 293 293 293 292 292 292
250 247 246 246 247 247 246 245 246 247 247 247 248 249 249 249 251 254 258 259 258 257 255 255 255 255 254 252 251 250 249 249 251 253 254 255 254 255 256 259 261 263 264 265 265 266 268 272 274 276 278 278 278 279 281 283 284 286 287 288 290 292 295 297 298 300 301 301 302 302 301 300 300 301 302 301 300 299 296 294 292 291 291 291 290
255 254 253 254 253 251 249 247 246 246 246 246 247 248 249 249 248 248 249 249 248 248 249 249 249 250 250 250 250 251 253 254 255 257 259 259 259 259 259 260 262 264 264 264 265 266 268 270 272 273 274 274 275 277 280 282 284 285 287 289 291 293 295 297 299 300 298 298 298 299 300 298 298 299 299 300 299 298 295 293 291 290 290 289 288
255 256 257 258 257 255 253 252 249 248 247 246 245 247 249 249 247 246 245 244 244 244 244 245 246 248 250 253 255 257 259 260 260 260 260 260 261 261 261 261 262 263 264 264 264 266 267 268 269 271 272 273 275 277 280 282 284 287 289 290 292 293 295 297 298 297 296 296 297 297 297 296 296 296 296 296 296 295 294 292 291 289 288 287 287
252 254 256 258 260 260 259 257 254 252 250 248 247 246 246 246 245 245 244 243 243 243 243 245 248 252 255 257 259 260 260 260 260 260 260 261 260 260 260 259 260 261 261 262 263 264 265 266 268 269 271 273 276 278 280 282 285 288 289 290 293 293 294 295 294 293 293 294 295 295 295 294 293 293 294 293 293 293 293 291 290 288 287 287 287
252 253 256 259 260 261 260 259 256 252 248 247 247 246 244 243 244 244 244 245 245 246 246 249 254 257 260 261 262 261 260 259 259 258 258 257 257 256 256 256 257 258 259 261 262 263 264 266 268 270 272 275 277 278 280 283 286 287 287 290 293 293 293 293 292 292 292 292 293 293 293 292 292 291 291 291 291 291 290 289 289 288 287 286 286
254 257 260 260 259 258 257 257 256 253 249 246 244 244 244 243 243 244 246 247 247 248 249 250 251 252 253 254 254 253 253 253 253 253 253 253 255 256 257 258 259 260 262 263 265 266 268 269 269 271 273 275 276 277 280 284 285 284 286 290 291 292 293 293 292 293 292 292 292 293 292 291 291 290 289 289 288 287 288 288 288 287 286 285 284
255 260 260 258 256 255 254 254 255 256 254 250 245 242 243 243 244 245 246 248 248 249 250 249 248 246 246 247 247 248 247 248 249 250 252 254 256 258 260 262 263 265 266 267 270 271 272 271 272 273 274 275 276 279 280 281 282 284 287 288 289 290 291 292 293 293 293 293 293 292 291 290 288 287 286 285 285 285 285 285 284 283 283 281 281
254 259 260 259 257 254 253 252 253 254 256 255 251 246 244 243 244 245 246 247 248 249 249 249 248 247 246 247 248 250 250 251 252 254 256 258 259 262 264 265 266 267 268 270 271 271 271 272 272 274 275 275 277 278 279 279 281 284 286 286 287 289 290 291 293 293 293 293 293 290 289 288 285 283 282 281 281 281 281 280 279 279 279 278 278
252 257 261 261 259 255 253 251 251 252 254 256 257 254 250 246 244 245 245 246 247 248 249 249 249 249 249 249 250 252 254 255 257 258 259 261 263 264 265 266 267 268 268 269 269 268 269 270 271 272 273 274 274 275 277 278 280 281 283 285 287 289 290 290 291 292 292 292 292 291 289 287 284 282 281 279 279 280 279 278 277 277 277 277 276
254 261 264 263 261 258 255 254 252 251 251 253 255 256 254 251 247 246 246 246 247 247 248 249 250 251 252 252 253 254 256 257 258 259 260 261 263 264 265 266 268 268 269 269 268 268 268 268 269 269 269 270 271 273 275 277 279 280 282 284 285 287 288 288 289 289 289 290 291 291 290 287 285 282 280 279 279 278 278 278 278 278 278 278 277
258 263 264 262 261 261 259 257 256 253 250 249 251 253 253 253 251 250 249 248 248 248 249 250 251 252 252 253 254 254 254 256 257 258 260 261 263 264 266 267 268 269 269 269 268 268 267 266 266 266 267 268 270 272 274 276 279 281 283 284 284 285 284 285 287 287 288 290 291 291 290 287 284 281 279 279 278 277 278 279 280 279 279 278 277
Height
3196 3196 3196 3197 3197 3197 3197 3197 3197 3198 3198 3198 3198 3199 3199 3200 3200 3200 3200 3200 3201 3201 3201 3202 3202 3202 3203 3203 3204 3204 3205 3205 3205 3205 3205 3205 3205 3204 3204 3204 3203 3203 3203 3203 3202 3202 3202 3202 3202 3202 3202 3202 3202 3202 3202 3202 3202 3202 3202 3201 3201 3201 3200 3200 3199 3199 3198 3198 3197 3196 3195 3195 3194 3193 3193 3192 3191 3190 3189 3189 3188 3187 3186 3185 3183
3197 3197 3197 3197 3197 3198 3198 3198 3198 3199 3199 3199 3200 3200 3200 3201 3201 3201 3201 3201 3202 3202 3202 3203 3203 3203 3204 3204 3205 3205 3206 3206 3206 3205 3205 3205 3205 3205 3205 3204 3204 3204 3204 3203 3203 3203 3203 3203 3203 3203 3204 3204 3204 3204 3204 3203 3203 3203 3203 3202 3202 3202 3201 3200 3200 3199 3199 3198 3198 3197 3196 3195 3195 3194 3193 3192 3192 3191 3190 3189 3188 3187 3186 3185 3184
3198 3198 3198 3198 3198 3198 3199 3199 3199 3200 3200 3200 3201 3201 3201 3202 3202 3202 3202 3202 3203 3203 3203 3204 3204 3204 3205 3205 3206 3206 3206 3206 3206 3206 3206 3206 3206 3206 3206 3205 3205 3205 3204 3204 3204 3205 3205 3205 3205 3204 3204 3205 3205 3205 3205 3204 3204 3204 3204 3203 3203 3202 3202 3201 3201 3200 3200 3199 3198 3197 3197 3196 3195 3195 3194 3193 3192 3191 3190 3189 3188 3188 3187 3185 3184
3199 3199 3199 3199 3199 3199 3199 3200 3200 3201 3201 3201 3202 3202 3202 3202 3203 3203 3203 3203 3203 3204 3204 3205 3205 3206 3206 3206 3207 3207 3207 3206 3207 3207 3207 3207 3207 3207 3206 3206 3206 3205 3205 3205 3206 3206 3206 3206 3206 3205 3205 3205 3205 3206 3206 3206 3205 3205 3205 3204 3204 3203 3202 3202 3201 3201 3200 3199 3199 3198 3197 3197 3196 3195 3194 3193 3193 3192 3191 3190 3189 3188 3187 3186 3184
3200 3200 3200 3200 3200 3200 3200 3201 3201 3202 3202 3202 3202 3203 3203 3203 3203 3204 3204 3204 3204 3205 3205 3206 3206 3207 3207 3207 3207 3207 3207 3207 3208 3208 3208 3208 3208 3207 3207 3207 3206 3206 3206 3206 3206 3207 3207 3207 3206 3206 3206 3206 3207 3207 3207 3206 3206 3206 3205 3205 3204 3203 3203 3203 3202 3202 3201 3200 3199 3199 3198 3197 3197 3196 3195 3194 3193 3192 3191 3190 3189 3188 3187 3186 3185
3200 3201 3201 3201 3201 3201 3201 3201 3202 3202 3203 3203 3203 3203 3204 3204 3204 3204 3205 3205 3206 3206 3207 3207 3208 3208 3208 3208 3208 3208 3209 3209 3209 3209 3209 3209 3209 3208 3208 3207 3207 3207 3207 3207 3207 3207 3207 3207 3207 3207 3207 3207 3208 3208 3208 3207 3207 3206 3206 3205 3205 3204 3204 3203 3203 3202 3202 3201 3200 3200 3199 3198 3197 3197 3196 3195 3194 3192 3191 3190 3189 3188 3187 3186 3185
3201 3202 3202 3202 3202 3202 3202 3202 3202 3203 3203 3204 3204 3204 3204 3204 3205 3205 3205 3206 3207 3207 3208 3208 3209 3209 3209 3209 3210 3210 3210 3210 3210 3210 3210 3210 3209 3209 3209 3208 3208 3208 3208 3208 3208 3208 3208 3208 3208 3208 3208 3209 3208 3208 3208 3208 3208 3207 3207 3206 3206 3205 3205 3204 3204 3203 3202 3202 3201 3200 3200 3199 3198 3197 3196 3195 3194 3193 3192 3191 3190 3188 3187 3186 3185
3202 3203 3203 3203 3203 3203 3203 3203 3203 3204 3204 3204 3205 3205 3205 3206 3206 3206 3206 3207 3208 3208 3209 3209 3210 3210 3210 3211 3211 3211 3211 3212 3212 3212 3211 3211 3211 3210 3210 3209 3209 3209 3209 3209 3209 3209 3209 3210 3210 3210 3210 3210 3209 3209 3209 3209 3208 3208 3207 3207 3207 3206 3206 3205 3205 3204 3203 3202 3202 3201 3200 3199 3198 3197 3196 3195 3194 3193 3192 3191 3190 3189 3188 3186 3185
3203 3203 3204 3204 3204 3204 3204 3204 3204 3204 3205 3205 3206 3206 3206 3207 3207 3207 3208 3208 3209 3209 3210 3210 3210 3211 3211 3212 3212 3212 3213 3213 3213 3213 3212 3212 3211 3211 3211 3210 3210 3210 3210 3210 3210 3211 3211 3211 3211 3211 3211 3210 3210 3210 3209 3209 3209 3209 3208 3208 3207 3207 3206 3206 3205 3204 3204 3203 3202 3201 3200 3200 3199 3198 3197 3195 3194 3193 3192 3191 3190 3189 3188 3187 3186
3203 3203 3204 3205 3205 3205 3205 3205 3205 3205 3205 3206 3206 3207 3207 3208 3208 3208 3209 3209 3210 3210 3210 3211 3211 3212 3212 3213 3213 3213 3213 3213 3213 3213 3213 3212 3212 3212 3212 3211 3211 3212 3212 3212 3212 3212 3212 3212 3212 3212 3211 3211 3211 3211 3210 3210 3210 3210 3209 3209 3208 3208 3207 3206 3206 3205 3204 3203 3203 3202 3201 3200 3199 3198 3197 3196 3195 3194 3193 3192 3191 3190 3189 3187 3186
3202 3203 3204 3205 3205 3206 3206 3206 3206 3206 3206 3206 3207 3207 3207 3208 3209 3209 3210 3210 3211 3211 3211 3211 3212 3212 3213 3213 3214 3214 3214 3214 3214 3214 3213 3213 3212 3212 3212 3212 3212 3212 3212 3212 3212 3212 3213 3213 3213 3212 3212 3212 3212 3211 3211 3211 3211 3210 3210 3209 3209 3208 3208 3207 3206 3205 3205 3204 3203 3202 3201 3200 3199 3198 3197 3196 3195 3194 3193 3192 3191 3190 3189 3187 3186
3202 3203 3204 3205 3205 3206 3206 3206 3206 3206 3207 3207 3207 3207 3208 3208 3209 3210 3210 3211 3211 3211 3212 3212 3213 3213 3213 3214 3214 3214 3214 3214 3214 3214 3213 3213 3213 3213 3213 3213 3213 3213 3213 3213 3213 3213 3213 3213 3213 3213 3212 3212 3212 3212 3212 3211 3211 3210 3210 3210 3209 3209 3208 3207 3207 3206 3205 3204 3203 3202 3201 3200 3199 3198 3197 3196 3195 3194 3193 3192 3191 3190 3188 3187 3186
3202 3203 3204 3204 3205 3206 3206 3207 3207 3207 3207 3207 3208 3208 3208 3209 3209 3210 3210 3211 3211 3212 3212 3213 3213 3213 3214 3214 3214 3214 3214 3214 3214 3214 3214 3213 3213 3213 3213 3213 3213 3214 3214 3214 3214 3213 3213 3213 3213 3213 3213 3212 3212 3212 3212 3211 3211 3211 3210 3210 3209 3209 3208 3208 3207 3206 3205 3204 3203 3202 3201 3200 3199 3198 3197 3196 3195 3194 3193 3192 3191 3190 3188 3187 3186
3202 3203 3203 3204 3205 3205 3206 3207 3207 3207 3208 3208 3208 3208 3209 3209 3210 3210 3211 3211 3212 3212 3213 3213 3214 3214 3214 3214 3215 3215 3215 3215 3214 3214 3214 3214 3213 3213 3213 3213 3213 3214 3214 3214 3214 3213 3213 3213 3213 3213 3212 3212 3212 3212 3212 3211 3211 3211 3211 3210 3210 3209 3208 3207 3207 3206 3205 3204 3203 3202 3201 3200 3199 3198 3197 3196 3195 3194 3193 3192 3191 3189 3188 3187 3186
3202 3203 3203 3204 3204 3205 3206 3206 3207 3207 3208 3208 3208 3209 3209 3210 3210 3211 3211 3212 3213 3213 3213 3214 3214 3214 3215 3215 3215 3215 3215 3215 3214 3214 3214 3214 3213 3213 3213 3213 3213 3213 3213 3213 3213 3213 3213 3213 3213 3213 3213 3213 3213 3212 3212 3212 3211 3211 3211 3210 3210 3209 3208 3207 3207 3206 3205 3204 3203 3202 3201 3200 3199 3198 3197 3196 3195 3194 3193 3192 3191 3189 3188 3187 3185
3201 3202 3203 3204 3204 3205 3205 3206 3206 3207 3207 3208 3208 3209 3210 3210 3211 3211 3212 3212 3213 3214 3214 3214 3215 3215 3215 3215 3215 3215 3215 3215 3214 3214 3214 3213 3213 3213 3213 3213 3213 3213 3213 3213 3213 3213 3213 3213 3213 3213 3213 3213 3213 3213 3213 3212 3212 3211 3211 3210 3210 3209 3208 3208 3207 3206 3205 3204 3203 3202 3201 3200 3199 3198 3197 3196 3195 3194 3193 3192 3190 3189 3188 3186 3185
3201 3202 3202 3203 3204 3204 3205 3206 3206 3207 3207 3208 3208 3209 3210 3210 3211 3211 3212 3213 3213 3214 3214 3215 3215 3215 3215 3215 3215 3215 3215 3214 3214 3214 3213 3213 3213 3213 3213 3213 3213 3213 3213 3213 3214 3214 3214 3214 3214 3213 3213 3213 3213 3213 3213 3213 3212 3212 3211 3211 3210 3209 3208 3208 3207 3206 3205 3204 3203 3202 3201 3200 3199 3198 3197 3196 3195 3194 3192 3191 3190 3189 3188 3186 3185
3200 3201 3202 3203 3203 3204 3205 3205 3206 3206 3207 3208 3208 3209 3210 3210 3211 3211 3212 3212 3213 3213 3214 3214 3215 3215 3215 3215 3215 3215 3214 3214 3214 3214 3214 3214 3213 3213 3213 3214 3214 3214 3214 3214 3215 3215 3215 3215 3214 3214 3214 3214 3213 3213 3213 3213 3212 3212 3211 3211 3210 3209 3208 3207 3207 3206 3205 3204 3203 3202 3201 3200 3199 3198 3196 3196 3195 3193 3192 3191 3190 3189 3187 3186 3185
3200 3200 3201 3202 3203 3204 3204 3205 3206 3206 3207 3207 3208 3209 3209 3210 3210 3211 3211 3212 3212 3213 3213 3213 3214 3214 3214 3214 3214 3214 3214 3214 3214 3214 3214 3214 3214 3214 3214 3214 3214 3214 3214 3215 3215 3215 3215 3215 3215 3214 3214 3214 3213 3213 3213 3212 3212 3212 3211 3210 3209 3209 3208 3207 3206 3205 3204 3203 3202 3201 3200 3199 3198 3197 3196 3195 3194 3193 3192 3191 3189 3188 3187 3186 3185
3199 3200 3200 3201 3202 3203 3204 3204 3205 3206 3206 3207 3207 3208 3208 3209 3210 3210 3210 3211 3211 3212 3212 3213 3213 3214 3214 3214 3214 3214 3214 3215 3214 3214 3214 3214 3214 3214 3214 3214 3214 3214 3214 3214 3215 3215 3215 3214 3214 3214 3214 3213 3213 3213 3213 3212 3212 3211 3211 3210 3209 3208 3207 3206 3205 3205 3204 3203 3202 3201 3200 3198 3198 3197 3195 3195 3194 3193 3192 3191 3189 3188 3187 3186 3185
3199 3199 3200 3200 3201 3202 3203 3204 3204 3205 3206 3206 3207 3207 3208 3208 3209 3209 3210 3210 3211 3211 3212 3212 3213 3213 3213 3214 3214 3214 3215 3215 3215 3214 3214 3214 3214 3214 3214 3214 3214 3214 3214 3214 3214 3214 3214 3214 3214 3213 3213 3213 3213 3212 3212 3212 3211 3211 3210 3209 3209 3208 3207 3206 3205 3204 3203 3202 3201 3200 3199 3198 3197 3196 3195 3194 3193 3192 3191 3190 3189 3188 3186 3185 3184
3198 3198 3199 3199 3200 3201 3202 3203 3204 3204 3205 3205 3206 3207 3207 3208 3208 3209 3209 3210 3210 3211 3211 3212 3212 3213 3213 3213 3214 3214 3214 3214 3214 3214 3214 3214 3214 3214 3214 3214 3214 3213 3213 3213 3213 3213 3213 3213 3213 3213 3213 3212 3212 3212 3212 3211 3211 3210 3209 3209 3208 3207 3206 3205 3204 3203 3203 3201 3201 3200 3199 3198 3197 3196 3195 3194 3193 3192 3191 3190 3189 3188 3186 3185 3184
3196 3197 3198 3198 3199 3200 3201 3202 3203 3204 3204 3205 3205 3206 3206 3207 3208 3208 3209 3209 3210 3210 3211 3211 3212 3212 3212 3213 3213 3214 3214 3214 3214 3214 3214 3214 3214 3213 3213 3213 3213 3213 3213 3213 3213 3213 3213 3213 3212 3212 3212 3212 3212 3211 3211 3210 3210 3209 3209 3208 3207 3207 3206 3205 3204 3203 3202 3201 3200 3199 3198 3197 3196 3195 3194 3193 3192 3191 3190 3189 3188 3186 3185 3184 3183
3195 3196 3196 3197 3197 3198 3199 3200 3201 3203 3203 3204 3204 3205 3205 3206 3207 3208 3208 3209 3209 3210 3210 3211 3211 3212 3212 3212 3213 3213 3213 3213 3213 3213 3213 3213 3213 3213 3213 3213 3213 3213 3212 3212 3212 3212 3212 3212 3212 3212 3211 3211 3211 3211 3210 3210 3209 3209 3208 3207 3207 3206 3205 3204 3203 3202 3201 3200 3199 3198 3197 3196 3195 3194 3193 3192 3191 3190 3189 3188 3187 3185 3184 3183 3182
3194 3194 3194 3195 3196 3197 3198 3199 3200 3201 3202 3203 3204 3204 3204 3205 3206 3206 3207 3208 3209 3209 3210 3210 3211 3211 3211 3212 3212 3212 3213 3213 3213 3213 3213 3212 3212 3212 3212 3212 3212 3212 3212 3212 3211 3211 3211 3211 3211 3211 3211 3211 3210 3210 3210 3209 3209 3208 3207 3207 3206 3205 3204 3203 3202 3202 3201 3200 3199 3198 3197 3195 3194 3193 3192 3191 3191 3189 3188 3187 3186 3185 3184 3183 3182
3193 3193 3193 3194 3194 3195 3196 3197 3198 3199 3201 3202 3203 3203 3204 3204 3205 3205 3206 3207 3208 3209 3209 3210 3210 3210 3210 3211 3211 3212 3212 3212 3212 3212 3212 3212 3211 3211 3211 3211 3211 3211 3211 3211 3211 3211 3210 3210 3210 3210 3210 3210 3209 3209 3209 3208 3208 3207 3207 3206 3206 3205 3204 3203 3202 3201 3200 3199 3198 3197 3196 3195 3193 3192 3192 3191 3190 3189 3188 3187 3185 3184 3183 3182 3181
3192 3192 3192 3192 3193 3193 3194 3195 3196 3197 3199 3200 3201 3202 3203 3204 3204 3204 3205 3206 3206 3207 3208 3209 3209 3209 3210 3210 3210 3211 3211 3211 3211 3211 3211 3211 3211 3210 3210 3210 3210 3210 3210 3210 3210 3210 3210 3209 3209 3209 3209 3209 3208 3208 3208 3207 3207 3206 3206 3205 3205 3204 3204 3203 3202 3200 3199 3198 3197 3196 3195 3194 3193 3191 3191 3190 3189 3188 3187 3186 3185 3183 3182 3181 3180
3191 3191 3191 3192 3192 3192 3193 3194 3195 3196 3197 3198 3199 3201 3202 3202 3203 3204 3204 3205 3205 3206 3207 3207 3208 3208 3209 3209 3209 3210 3210 3210 3210 3210 3210 3210 3210 3209 3209 3209 3209 3209 3209 3209 3209 3209 3209 3209 3208 3208 3208 3208 3207 3207 3206 3206 3206 3206 3205 3205 3204 3204 3203 3202 3201 3200 3199 3198 3197 3196 3195 3193 3192 3191 3190 3189 3188 3187 3186 3185 3184 3183 3182 3181 3180
3190 3190 3191 3191 3191 3192 3192 3193 3194 3195 3196 3197 3198 3199 3200 3201 3202 3203 3203 3203 3204 3204 3205 3205 3206 3207 3207 3208 3208 3209 3209 3209 3209 3209 3209 3209 3209 3209 3209 3208 3208 3208 3208 3208 3208 3208 3208 3208 3207 3207 3207 3207 3206 3206 3206 3206 3206 3205 3205 3204 3204 3203 3202 3201 3200 3199 3198 3197 3196 3195 3194 3192 3191 3190 3189 3188 3187 3186 3185 3184 3183 3182 3181 3180 3179
3189 3189 3189 3190 3190 3191 3191 3193 3194 3194 3195 3196 3197 3198 3199 3200 3201 3201 3202 3202 3203 3203 3203 3204 3204 3205 3206 3206 3206 3207 3207 3208 3208 3208 3208 3208 3208 3208 3208 3208 3207 3207 3207 3207 3207 3207 3207 3207 3207 3206 3206 3206 3206 3206 3206 3205 3205 3205 3204 3203 3203 3202 3201 3200 3199 3198 3196 3195 3194 3193 3192 3191 3190 3189 3188 3187 3186 3185 3184 3183 3182 3181 3180 3179 3178
3188 3188 3188 3189 3189 3190 3191 3192 3193 3193 3194 3195 3196 3197 3198 3198 3199 3200 3201 3201 3201 3202 3202 3203 3203 3204 3204 3205 3205 3206 3206 3207 3207 3207 3207 3207 3207 3207 3207 3207 3207 3206 3206 3206 3206 3206 3206 3206 3206 3206 3205 3205 3205 3205 3205 3204 3204 3203 3203 3202 3201 3201 3200 3199 3197 3196 3195 3194 3193 3192 3191 3190 3189 3188 3187 3186 3185 3184 3183 3182 3181 3180 3179 3178 3176
3187 3187 3187 3187 3188 3188 3189 3190 3191 3192 3193 3194 3195 3196 3197 3197 3198 3199 3199 3200 3200 3200 3201 3201 3202 3202 3203 3203 3204 3204 3205 3205 3206 3206 3206 3206 3206 3206 3206 3206 3206 3206 3205 3205 3205 3205 3205 3205 3205 3204 3204 3204 3204 3203 3203 3203 3202 3201 3201 3200 3200 3199 3198 3197 3196 3195 3193 3192 3191 3190 3189 3188 3187 3187 3186 3185 3183 3182 3182 3181 3180 3179 3178 3176 3175
3186 3186 3186 3186 3186 3187 3188 3189 3190 3191 3192 3193 3194 3195 3195 3196 3196 3197 3198 3198 3198 3199 3199 3200 3200 3201 3201 3202 3202 3203 3203 3204 3204 3204 3205 3205 3205 3205 3205 3205 3205 3204 3204 3204 3204 3203 3203 3203 3203 3203 3202 3202 3202 3202 3201 3201 3200 3200 3199 3199 3198 3198 3197 3196 3194 3193 3192 3191 3189 3189 3188 3187 3186 3185 3184 3183 3182 3181 3181 3180 3179 3178 3176 3175 3174
3185 3185 3185 3185 3185 3186 3186 3187 3188 3189 3190 3191 3192 3193 3194 3194 3195 3196 3196 3196 3197 3197 3198 3198 3199 3199 3200 3200 3201 3201 3201 3202 3202 3203 3203 3204 3204 3204 3204 3204 3203 3203 3203 3203 3202 3202 3201 3201 3201 3201 3201 3200 3200 3200 3199 3199 3199 3198 3198 3197 3196 3196 3195 3194 3193 3191 3190 3189 3188 3187 3186 3185 3184 3183 3183 3182 3181 3180 3179 3178 3177 3176 3175 3174 3173
3183 3183 3184 3184 3184 3184 3185 3185 3186 3187 3188 3189 3190 3191 3192 3192 3193 3194 3194 3195 3195 3196 3196 3197 3197 3197 3198 3199 3199 3200 3200 3200 3201 3201 3202 3202 3203 3203 3203 3202 3201 3201 3201 3201 3200 3200 3200 3199 3199 3199 3199 3198 3198 3198 3197 3197 3197 3196 3196 3195 3194 3194 3193 3192 3191 3190 3189 3187 3186 3185 3184 3183 3183 3182 3181 3180 3179 3179 3178 3177 3176 3175 3174 3173 3172
3181 3181 3182 3182 3182 3183 3183 3183 3184 3185 3186 3187 3187 3188 3189 3190 3191 3192 3192 3193 3193 3194 3195 3195 3196 3196 3196 3197 3198 3198 3199 3199 3199 3199 3200 3200 3201 3201 3201 3200 3199 3199 3199 3199 3199 3199 3198 3198 3197 3197 3197 3196 3196 3196 3195 3195 3194 3194 3193 3193 3192 3192 3191 3190 3189 3188 3187 3186 3184 3183 3182 3182 3181 3180 3179 3178 3177 3177 3176 3176 3175 3174 3173 3171 3170
3179 3179 3179 3180 3181 3181 3181 3182 3182 3183 3184 3184 3185 3186 3187 3188 3188 3189 3190 3190 3191 3192 3193 3193 3194 3194 3195 3196 3196 3196 3197 3197 3197 3197 3198 3198 3198 3198 3198 3197 3197 3197 3197 3197 3197 3197 3196 3196 3195 3195 3195 3194 3194 3194 3193 3193 3192 3191 3191 3190 3190 3189 3188 3187 3187 3186 3185 3183 3182 3181 3180 3180 3179 3179 3178 3177 3176 3175 3175 3174 3173 3172 3171 3170 3169
3176 3176 3177 3177 3178 3179 3179 3180 3180 3181 3181 3182 3183 3184 3185 3185 3186 3187 3187 3188 3189 3190 3190 3191 3192 3193 3193 3194 3194 3194 3195 3195 3195 3195 3195 3196 3196 3196 3196 3195 3195 3195 3195 3196 3196 3195 3195 3194 3193 3193 3192 3192 3192 3191 3191 3190 3190 3189 3188 3188 3188 3187 3186 3185 3184 3184 3183 3182 3180 3179 3179 3178 3177 3177 3176 3175 3174 3173 3172 3172 3171 3170 3169 3168 3167
3173 3174 3174 3175 3175 3176 3177 3178 3179 3179 3180 3180 3181 3181 3182 3183 3184 3185 3186 3186 3188 3188 3189 3189 3190 3190 3191 3191 3191 3192 3193 3193 3193 3193 3193 3193 3193 3194 3194 3193 3193 3193 3193 3194 3194 3193 3193 3192 3191 3191 3190 3190 3190 3189 3188 3188 3187 3187 3186 3186 3185 3184 3183 3183 3182 3182 3181 3180 3179 3178 3177 3176 3175 3174 3174 3173 3172 3171 3170 3169 3169 3168 3167 3166 3165
3171 3171 3171 3172 3172 3173 3174 3175 3176 3177 3178 3178 3179 3179 3180 3181 3182 3183 3184 3185 3186 3186 3186 3187 3187 3188 3188 3188 3189 3190 3190 3190 3190 3190 3190 3191 3191 3191 3191 3191 3191 3191 3191 3192 3192 3191 3190 3189 3189 3189 3188 3188 3187 3187 3186 3185 3185 3184 3183 3183 3182 3181 3181 3181 3180 3180 3179 3178 3177 3176 3175 3174 3173 3172 3172 3171 3170 3169 3168 3167 3167 3166 3165 3164 3164
3168 3169 3169 3170 3171 3171 3171 3172 3174 3174 3175 3176 3177 3177 3178 3179 3180 3180 3181 3182 3183 3183 3184 3184 3185 3185 3185 3186 3186 3187 3187 3187 3187 3188 3188 3188 3189 3189 3189 3189 3188 3188 3189 3189 3189 3188 3187 3187 3187 3186 3186 3185 3185 3184 3183 3182 3182 3181 3180 3180 3179 3179 3179 3178 3178 3178 3177 3175 3175 3174 3173 3172 3171 3170 3169 3168 3167 3167 3166 3165 3164 3164 3163 3162 3161
3166 3167 3167 3168 3168 3168 3169 3170 3171 3171 3171 3173 3174 3174 3175 3176 3177 3178 3178 3179 3179 3180 3180 3181 3181 3181 3182 3183 3183 3184 3184 3185 3185 3185 3186 3186 3186 3186 3186 3186 3186 3186 3186 3186 3186 3185 3185 3185 3184 3184 3183 3182 3182 3181 3181 3180 3179 3178 3177 3177 3177 3177 3177 3176 3175 3175 3174 3173 3172 3171 3171 3169 3168 3168 3167 3166 3165 3164 3163 3162 3162 3161 3161 3160 3159
3163 3164 3164 3165 3166 3166 3166 3168 3168 3168 3169 3170 3170 3171 3173 3173 3174 3174 3174 3175 3175 3176 3176 3177 3177 3178 3179 3180 3181 3181 3182 3182 3182 3183 3183 3183 3183 3184 3184 3184 3183 3183 3183 3183 3183 3183 3182 3182 3181 3181 3180 3180 3180 3179 3178 3177 3176 3176 3174 3174 3174 3173 3173 3173 3172 3171 3170 3170 3169 3168 3168 3167 3166 3165 3164 3163 3162 3161 3161 3160 3159 3159 3158 3157 3157
3159 3160 3161 3162 3163 3164 3164 3165 3165 3166 3166 3166 3167 3168 3169 3169 3169 3170 3170 3171 3171 3172 3173 3173 3175 3176 3177 3178 3178 3179 3179 3179 3180 3180 3180 3180 3181 3181 3181 3181 3180 3180 3180 3180 3180 3180 3180 3179 3179 3178 3178 3177 3177 3177 3175 3174 3174 3173 3171 3170 3170 3169 3170 3170 3169 3168 3167 3167 3166 3166 3165 3164 3163 3162 3161 3160 3159 3158 3158 3157 3156 3156 3155 3155 3154
3156 3156 3157 3158 3159 3161 3161 3162 3162 3162 3163 3163 3164 3164 3164 3165 3165 3166 3166 3167 3168 3169 3170 3172 3173 3174 3175 3175 3175 3176 3176 3176 3176 3177 3177 3177 3177 3178 3178 3177 3177 3177 3177 3177 3177 3177 3177 3176 3176 3176 3175 3174 3174 3173 3172 3171 3171 3170 3168 3167 3167 3166 3166 3166 3165 3165 3165 3164 3163 3163 3162 3161 3160 3159 3158 3157 3156 3155 3154 3154 3153 3153 3153 3152 3152
3153 3154 3155 3155 3155 3156 3157 3158 3158 3158 3159 3160 3160 3160 3160 3160 3161 3161 3162 3164 3165 3166 3168 3169 3170 3171 3171 3171 3171 3172 3172 3173 3173 3173 3174 3174 3174 3174 3174 3174 3174 3174 3174 3174 3174 3174 3174 3174 3173 3172 3172 3172 3170 3170 3170 3169 3167 3166 3165 3164 3164 3162 3162 3162 3161 3161 3161 3160 3160 3159 3158 3158 3156 3155 3154 3154 3153 3152 3152 3151 3150 3150 3150 3149 3149
3150 3151 3150 3151 3151 3151 3153 3154 3154 3154 3155 3156 3156 3156 3156 3156 3157 3158 3159 3160 3161 3163 3165 3166 3166 3166 3166 3167 3167 3168 3168 3169 3170 3170 3170 3171 3171 3171 3171 3172 3171 3171 3171 3171 3171 3171 3171 3171 3170 3169 3169 3168 3166 3166 3166 3165 3163 3163 3162 3161 3160 3160 3159 3158 3158 3157 3156 3157 3157 3156 3154 3154 3153 3152 3151 3150 3149 3149 3149 3148 3147 3147 3146 3146 3145
3146 3146 3146 3146 3147 3147 3148 3149 3150 3150 3151 3152 3152 3152 3152 3153 3154 3154 3155 3156 3157 3160 3161 3162 3162 3162 3163 3163 3164 3165 3165 3166 3167 3167 3168 3168 3168 3169 3169 3169 3169 3169 3168 3168 3169 3168 3167 3167 3166 3166 3165 3164 3163 3162 3162 3161 3160 3160 3159 3158 3157 3156 3155 3155 3154 3153 3152 3152 3152 3151 3151 3150 3148 3148 3147 3146 3146 3146 3145 3145 3144 3143 3142 3142 3142
3142 3142 3142 3142 3142 3143 3144 3144 3145 3146 3146 3147 3148 3149 3149 3150 3151 3151 3151 3152 3154 3156 3157 3157 3158 3158 3160 3161 3161 3162 3163 3163 3164 3165 3165 3165 3165 3165 3165 3165 3165 3165 3165 3165 3165 3164 3163 3163 3162 3162 3161 3160 3159 3158 3157 3157 3157 3156 3156 3155 3153 3153 3152 3151 3150 3149 3148 3147 3147 3146 3147 3146 3145 3144 3143 3143 3142 3142 3141 3141 3140 3139 3139 3138 3139
3138 3138 3138 3138 3138 3138 3139 3139 3140 3141 3142 3143 3144 3145 3146 3146 3146 3147 3148 3149 3151 3152 3152 3153 3154 3155 3156 3157 3158 3159 3159 3160 3160 3160 3161 3161 3161 3161 3161 3161 3161 3161 3161 3160 3160 3160 3159 3159 3158 3158 3157 3156 3155 3155 3154 3154 3153 3153 3153 3152 3150 3150 3149 3148 3147 3146 3145 3144 3143 3142 3142 3142 3141 3140 3140 3139 3139 3138 3137 3137 3137 3136 3135 3135 3135
3135 3134 3134 3134 3134 3134 3134 3135 3136 3137 3137 3139 3139 3140 3141 3141 3142 3143 3144 3146 3148 3148 3148 3149 3151 3151 3153 3154 3155 3155 3155 3156 3156 3156 3157 3157 3157 3157 3157 3157 3157 3157 3156 3156 3156 3156 3155 3154 3154 3153 3153 3152 3152 3151 3151 3151 3150 3149 3149 3148 3147 3147 3146 3144 3144 3143 3141 3140 3139 3138 3138 3137 3137 3136 3136 3136 3135 3134 3134 3134 3134 3133 3132 3132 3132